EW6183 Weather Reports


Display with metric or nautical units.
time (UTC)temp
F
wind
direction
speed
MPH
gust
MPH
rain 1hr
in
rain 24hr
in
rain mn
in
humidity
%
barometer
mb
20260503203041 59 248 3.0 9.0 0.00 0.00 0.00 34 1012.3
20260503201539 60 182 4.0 11.0 0.00 0.00 0.00 34 1012.5
20260503200038 60 232 3.0 8.0 0.00 0.00 0.00 35 1012.4
20260503194535 59 262 3.0 8.0 0.00 0.00 0.00 36 1012.5
20260503193040 59 217 4.0 11.0 0.00 0.00 0.00 35 1012.8
20260503191531 58 263 4.0 10.0 0.00 0.00 0.00 36 1013.0
20260503190028 57 223 2.0 10.0 0.00 0.00 0.00 41 1013.1
20260503184527 56 259 3.0 13.0 0.00 0.00 0.00 41 1013.2
20260503183022 56 273 2.0 7.0 0.00 0.00 0.00 42 1013.4
20260503181521 57 302 4.0 13.0 0.00 0.00 0.00 39 1013.3
20260503180020 55 261 2.0 11.0 0.00 0.00 0.00 43 1013.5
20260503174524 54 232 3.0 10.0 0.00 0.00 0.00 44 1013.5
20260503173023 55 261 2.0 8.0 0.00 0.00 0.00 42 1013.5
20260503171523 55 331 4.0 18.0 0.00 0.00 0.00 40 1013.4
20260503120144 45 5 1.0 6.0 0.00 0.00 0.00 61 1013.6
20260503081521 44 293 0.0 2.0 0.00 0.00 0.00 63 1011.2
20260503071511 46 307 0.0 4.0 0.00 0.00 0.00 60 1011.1
20260503060122 48 324 0.0 3.0 0.00 0.00 0.00 56 1011.4
20260503054601 48 340 1.0 3.0 0.00 0.00 0.00 55 1011.7
20260503053055 49 286 1.0 4.0 0.00 0.00 0.00 55 1011.6
20260503051555 49 286 1.0 5.0 0.00 0.00 0.00 54 1011.7
20260503050052 49 283 0.0 2.0 0.00 0.00 0.00 55 1011.7
20260503044547 49 275 0.0 3.0 0.00 0.00 0.00 55 1012.0
20260503043047 49 293 1.0 3.0 0.00 0.00 0.00 54 1012.1
20260503041545 50 14 0.0 4.0 0.00 0.00 0.00 55 1012.1
20260503040048 49 329 2.0 6.0 0.00 0.00 0.00 55 1012.0
20260503034541 49 284 1.0 5.0 0.00 0.00 0.00 59 1012.0
20260503033047 49 320 0.0 3.0 0.00 0.00 0.00 60 1012.0
20260503031541 49 298 0.0 1.0 0.00 0.00 0.00 61 1012.0
20260503030040 49 298 0.0 1.0 0.00 0.00 0.00 62 1011.9
20260503024540 49 298 0.0 2.0 0.00 0.00 0.00 64 1012.1
20260503023040 49 298 0.0 0.0 0.00 0.00 0.00 64 1012.1
20260503021539 49 298 0.0 0.0 0.00 0.00 0.00 63 1012.2
20260503020039 49 298 0.0 0.0 0.00 0.00 0.00 63 1012.0
20260503014538 49 298 0.0 0.0 0.00 0.00 0.00 68 1012.1
20260503013048 49 298 0.0 1.0 0.00 0.00 0.00 63 1012.0
20260503011540 49 298 0.0 0.0 0.00 0.00 0.00 69 1012.2
20260503010047 49 298 0.0 0.0 0.00 0.00 0.00 64 1011.9
20260503004535 50 298 0.0 0.0 0.00 0.00 0.00 65 1011.6
20260503003035 51 298 0.0 0.0 0.00 0.00 0.00 61 1011.5
20260503001535 53 298 0.0 0.0 0.00 0.00 0.00 57 1011.5
20260503000034 54 298 0.0 0.0 0.00 0.00 0.00 53 1011.3
20260502234533 55 297 0.0 0.0 0.00 0.00 0.00 50 1011.3
20260502233033 56 297 0.0 0.0 0.00 0.00 0.00 47 1011.3
20260502231532 56 297 0.0 1.0 0.00 0.00 0.00 46 1011.4
20260502230032 57 297 0.0 3.0 0.00 0.00 0.00 45 1011.3
20260502224531 57 313 2.0 5.0 0.00 0.00 0.00 43 1011.3
20260502223031 58 305 1.0 3.0 0.00 0.00 0.00 43 1011.2
20260502221530 59 336 2.0 11.0 0.00 0.00 0.00 41 1011.0
20260502220030 60 249 1.0 5.0 0.00 0.00 0.00 41 1011.0
20260502214536 60 231 1.0 4.0 0.00 0.00 0.00 41 1011.1
20260502213030 60 333 0.0 6.0 0.00 0.00 0.00 43 1011.1
20260502211529 60 325 2.0 6.0 0.00 0.00 0.00 41 1011.0
20260502210031 60 330 1.0 8.0 0.00 0.00 0.00 44 1010.8
20260502204526 60 257 3.0 6.0 0.00 0.00 0.00 41 1010.7